CZ-3C DEB, 40858

Orbit data source: Space-Track

CZ-3C DEB, 40858 is space debris in HEO originally from a launch on Fri, 24 Feb 2012 UTC launched from the Xichang Space Center, China (XSC). Debris objects in space refer to the collection of defunct objects orbiting the Earth. Examples of debris include non-operational satellites, rocket bodies, and fragments generated from explosions, collisions, or faulty payload assembly.

Loading next visibility...
Identifier
40858, 2012-008Y
Orbit
HEO
Country
Flag of CNCN / PRC
Related business
Manufacturer
CALT
Mission
Spacecraft
Bus & Motor
Unknown
Mass
Unknown
Launch date (UTC)
2012-02-24 (14 years ago)
Launch vehicle
Unknown
Launch site
Xichang Space Center, China (XSC)
Object type
Payload
Rocket body
Debris
Shape & HBR
Unknown shape, 0.1 m
Radar Cross Section
Medium (>0.1 m² and <1 m²)

Expand to show TLE details & history
Last TLE update: 1 day ago

TLE from 1 day ago
0 CZ-3C DEB
1 40858U 12008Y   25340.00226812  .00000170  00000-0  28438-2 0  9996
2 40858  17.7961 137.7367 7275403  62.9962 351.9066  2.12252579 85114
Epoch: 2025-12-06T00:03Z
TLE epoch observation values (Epoch: 2025-12-06T00:03:15.965Z)
Latitude
0.00004°
Longitude
61.67172°
Altitude
2,699.423 km
Speed
8.499 km/s
True Right ascension
09h 10m 05s
True Declination
0° 00' 00"
Sunlit
Object was in daylight at epoch
Visualization orbit readout
Latitude
Unknown
Longitude
Unknown
Altitude
Unknown
Speed
Unknown
Apparent Right ascension
Unknown
Apparent Declination
Unknown
Sunlit
N/A
Visualization observer readout
Local Sidereal Time
01:12:07
Azimuth
Unknown
Elevation
Unknown
Doppler factor
Unknown
Orbital elements
Apogee altitude
37,813.441 km
Perigee altitude
591.555 km
Semi-major axis
25,580.635 km
Eccentricity
0.72754
Inclination
17.7961°
RAAN
137.7367°
Arg. of periapsis
62.9962°
True anomaly
297.59204°
Mean anomaly
351.9066°
Eccentric anomaly
332.94888°
Mean motion
0.53049 °/min
Orbital period
678.62 mins
BSTAR
0.0028438
Loading maneuver chart data...
Computing Atmospheric mass density...
Loading historical data...
Loading historical data...
Loading historical data...
Loading historical data...
Loading historical data...
Loading historical data...
Loading historical data...

Documentation

Showing up to 5 results
|